Probability
26 23 26 26 29 29 35 32 35 32 32 29 26 19 3 0 0 6 10 55 61 65 65 71 65 61 61 61 61 58 61 58 61 65 58 61 55 58 52 39 42 32 32
16 19 13 23 26 23 26 29 23 29 19 23 26 16 3 0 3 6 6 26 45 48 58 48 48 52 48 48 52 58 58 52 52 52 55 58 58 48 39 35 32 29 26
10 13 6 16 16 19 16 19 13 13 10 3 10 10 6 3 6 6 6 10 19 42 45 45 45 52 45 45 48 52 45 45 42 45 45 45 48 39 32 32 26 32 23
10 6 6 10 13 13 10 3 3 0 0 0 3 3 6 6 3 3 3 3 10 13 26 39 42 42 42 39 39 39 39 42 39 42 39 42 39 32 23 16 19 16 23
6 3 3 3 3 3 6 6 3 3 3 3 3 3 0 3 6 3 3 3 0 3 0 10 26 32 35 35 35 35 35 39 39 29 26 26 32 26 13 10 6 10 10
3 3 3 6 6 0 6 6 6 3 3 3 3 0 0 0 0 0 3 3 3 0 0 0 3 19 23 29 32 35 29 35 32 32 26 19 23 19 10 10 3 3 3
3 3 3 6 3 3 3 6 6 6 3 3 0 0 0 0 0 0 0 0 0 0 0 0 0 0 0 19 19 23 23 19 16 23 19 23 19 13 6 6 3 6 3
3 6 6 3 3 3 3 3 3 3 3 0 0 0 0 0 0 0 0 0 0 0 0 0 0 0 0 0 0 10 16 19 16 13 13 16 10 6 6 6 6 3 3
0 0 0 0 0 0 0 3 3 3 3 0 0 3 3 0 0 0 0 0 0 0 0 0 0 0 0 0 0 0 3 0 13 13 13 13 3 3 3 6 10 3 3
0 0 0 0 3 3 0 0 0 0 0 0 0 0 0 0 0 0 0 0 0 0 0 0 0 0 0 0 0 0 0 0 0 6 10 10 10 6 3 3 3 3 3
0 3 3 3 3 0 0 0 0 0 0 0 0 3 0 0 0 0 0 0 0 0 0 0 0 0 0 0 0 0 0 0 0 0 0 0 3 3 3 3 0 0 0
0 0 0 0 0 0 0 0 0 0 0 0 0 0 0 0 0 0 0 0 0 0 0 0 0 0 0 0 0 0 0 0 0 0 0 0 0 0 3 3 3 0 0
0 0 0 0 0 0 0 0 0 0 0 0 0 0 0 0 0 0 0 0 0 0 0 0 0 0 0 0 0 0 0 0 0 0 0 0 0 0 0 0 0 0 0
0 0 0 0 0 0 0 0 0 0 0 0 0 0 0 0 0 0 0 0 0 0 0 0 0 0 0 0 0 0 0 0 0 0 0 0 0 0 0 0 0 0 0
0 0 0 0 0 0 0 0 0 0 0 0 0 0 0 0 0 0 0 0 0 0 0 0 0 0 0 0 0 0 0 0 0 0 0 0 0 0 0 0 0 0 0
0 0 0 0 0 0 0 0 0 0 0 0 0 0 0 0 0 0 0 0 0 0 0 0 0 0 0 0 0 0 0 0 0 0 0 0 0 0 0 0 0 0 0
0 0 0 0 0 0 0 0 0 0 0 0 0 0 0 0 0 0 0 0 0 0 0 0 0 0 0 0 0 0 0 0 0 0 0 0 0 0 0 0 0 0 0
0 0 0 0 0 0 0 0 0 0 0 0 0 0 0 0 0 0 0 0 0 0 0 0 0 0 0 0 0 0 0 0 0 0 0 0 0 0 0 0 0 0 0
0 0 0 0 0 0 0 0 0 0 0 0 0 0 0 0 0 0 0 0 0 0 0 0 0 0 0 0 0 0 0 0 0 0 0 0 0 0 0 0 0 0 0
0 0 0 0 0 0 0 0 0 0 0 0 0 0 0 0 0 0 0 0 0 0 0 0 0 0 0 0 0 0 0 0 0 0 0 0 0 0 0 0 0 0 0
0 0 0 0 0 0 0 0 0 0 0 0 0 0 0 0 0 0 0 0 0 0 0 0 0 0 0 0 0 0 0 0 0 0 0 0 0 0 0 0 0 0 0
0 0 0 0 0 0 0 0 0 0 0 0 0 0 0 0 0 0 0 0 0 0 0 0 0 0 0 0 0 0 0 0 0 0 0 0 0 0 0 0 0 0 0
0 0 0 0 0 0 0 0 0 0 0 0 0 0 0 0 0 0 0 0 0 0 0 0 0 0 0 0 0 0 0 0 0 0 0 0 0 0 0 0 0 0 0
0 0 0 0 0 0 0 0 0 0 0 0 0 0 0 0 0 0 0 0 0 0 0 0 0 0 0 0 0 0 0 0 0 0 0 0 0 0 0 0 0 0 0
0 0 0 0 0 0 0 0 0 0 0 0 0 0 0 0 0 0 0 0 0 0 0 0 0 0 0 0 0 0 0 0 0 0 0 0 0 0 0 0 0 0 0
0 0 0 0 0 0 0 0 0 0 0 0 0 0 0 0 0 0 0 0 0 0 0 0 0 0 0 0 0 0 0 0 0 0 0 0 0 0 0 0 0 0 0
Height
5870 5869 5869 5869 5869 5869 5869 5870 5870 5870 5871 5871 5871 5872 5872 5872 5872 5872 5872 5872 5872 5871 5871 5871 5870 5870 5870 5869 5869 5868 5868 5868 5868 5868 5868 5868 5869 5869 5869 5869 5870 5870 5871
5864 5864 5863 5863 5863 5863 5864 5865 5865 5865 5866 5866 5867 5867 5867 5867 5867 5868 5868 5868 5867 5867 5867 5866 5866 5866 5865 5865 5865 5864 5863 5863 5863 5863 5863 5863 5863 5864 5864 5864 5865 5865 5865
5859 5858 5857 5858 5858 5858 5858 5859 5859 5860 5861 5861 5862 5862 5862 5862 5863 5863 5863 5863 5862 5862 5862 5862 5861 5861 5861 5861 5860 5860 5859 5858 5858 5858 5858 5858 5858 5858 5858 5858 5859 5859 5860
5853 5852 5851 5852 5852 5852 5852 5853 5854 5855 5855 5855 5856 5856 5856 5857 5857 5857 5858 5857 5857 5857 5857 5857 5857 5856 5856 5855 5855 5855 5854 5853 5853 5852 5852 5852 5852 5852 5852 5852 5853 5853 5853
5848 5847 5846 5846 5846 5846 5847 5847 5848 5848 5849 5850 5850 5850 5851 5851 5852 5852 5852 5852 5852 5852 5852 5852 5852 5851 5851 5850 5850 5849 5848 5848 5847 5847 5846 5846 5846 5846 5846 5846 5846 5846 5847
5842 5841 5841 5840 5840 5840 5841 5841 5842 5842 5843 5844 5844 5845 5845 5845 5846 5846 5847 5847 5847 5847 5847 5846 5846 5845 5845 5845 5844 5843 5843 5842 5841 5840 5840 5840 5840 5840 5840 5839 5840 5840 5840
5836 5835 5835 5834 5834 5834 5835 5835 5836 5837 5837 5838 5838 5839 5839 5839 5840 5840 5841 5841 5841 5841 5841 5840 5840 5839 5839 5838 5838 5837 5837 5836 5835 5834 5834 5833 5833 5833 5833 5833 5833 5833 5833
5830 5829 5828 5828 5828 5828 5828 5829 5830 5831 5831 5831 5832 5832 5833 5834 5834 5834 5834 5834 5835 5834 5834 5834 5833 5833 5833 5832 5832 5831 5830 5829 5829 5828 5827 5827 5826 5826 5826 5826 5825 5825 5826
5824 5823 5823 5822 5821 5821 5822 5822 5823 5823 5824 5824 5825 5826 5827 5827 5827 5827 5827 5828 5828 5827 5827 5827 5827 5826 5826 5825 5825 5824 5823 5823 5822 5821 5820 5820 5819 5819 5818 5818 5818 5818 5818
5819 5818 5817 5816 5815 5815 5815 5815 5815 5816 5817 5817 5818 5819 5820 5820 5820 5820 5820 5820 5820 5820 5820 5820 5820 5819 5819 5818 5818 5817 5816 5815 5815 5814 5813 5812 5812 5811 5811 5811 5810 5810 5810
5813 5811 5810 5809 5808 5808 5808 5808 5808 5809 5809 5810 5811 5811 5812 5813 5813 5814 5813 5813 5813 5813 5813 5813 5812 5812 5812 5811 5811 5810 5809 5808 5807 5806 5806 5805 5804 5804 5803 5803 5803 5803 5803
5806 5805 5804 5803 5802 5801 5801 5801 5801 5802 5802 5803 5803 5804 5804 5805 5805 5806 5806 5806 5806 5806 5806 5806 5805 5805 5805 5804 5803 5803 5802 5801 5800 5799 5798 5798 5797 5797 5796 5796 5795 5795 5795
5800 5799 5797 5796 5795 5795 5795 5794 5795 5795 5795 5796 5796 5796 5796 5797 5797 5798 5798 5799 5799 5799 5798 5798 5798 5798 5798 5797 5796 5796 5795 5794 5793 5792 5792 5791 5790 5790 5789 5789 5788 5788 5788
5793 5792 5791 5790 5789 5789 5788 5788 5788 5788 5788 5788 5788 5788 5789 5789 5790 5790 5791 5791 5791 5792 5791 5792 5791 5791 5791 5790 5789 5789 5788 5787 5786 5785 5785 5784 5784 5783 5782 5782 5781 5781 5780
5787 5786 5784 5783 5783 5782 5782 5781 5781 5781 5781 5781 5781 5781 5781 5782 5782 5783 5783 5784 5785 5785 5785 5785 5785 5784 5784 5783 5782 5782 5781 5780 5780 5779 5778 5778 5777 5776 5776 5775 5774 5774 5773
5780 5779 5778 5777 5776 5775 5775 5774 5774 5773 5773 5773 5773 5773 5774 5774 5774 5775 5776 5776 5777 5778 5778 5778 5778 5778 5777 5777 5776 5776 5775 5774 5774 5773 5772 5771 5770 5770 5769 5768 5767 5767 5766
5774 5773 5771 5770 5769 5768 5768 5767 5767 5766 5766 5766 5766 5766 5766 5767 5767 5768 5768 5769 5770 5771 5771 5771 5772 5772 5771 5771 5770 5770 5769 5769 5768 5767 5766 5765 5764 5763 5762 5762 5761 5760 5759
5768 5766 5765 5764 5763 5762 5761 5761 5760 5760 5759 5759 5759 5759 5759 5759 5760 5761 5761 5762 5763 5764 5764 5765 5765 5765 5765 5765 5765 5764 5764 5764 5763 5762 5761 5760 5759 5758 5756 5756 5755 5754 5754
5762 5760 5759 5758 5757 5756 5755 5755 5754 5754 5753 5753 5752 5752 5753 5753 5753 5754 5755 5756 5757 5757 5758 5759 5759 5760 5760 5760 5760 5759 5759 5759 5758 5758 5757 5756 5754 5753 5752 5751 5750 5750 5749
5756 5755 5753 5752 5751 5750 5750 5749 5748 5748 5747 5747 5747 5747 5747 5747 5747 5748 5749 5750 5751 5752 5752 5753 5754 5754 5754 5754 5755 5755 5755 5754 5754 5753 5753 5752 5750 5749 5748 5747 5747 5746 5746
5750 5749 5748 5747 5746 5745 5744 5743 5743 5742 5742 5742 5742 5742 5742 5742 5742 5742 5743 5744 5745 5746 5747 5748 5748 5749 5749 5749 5750 5750 5750 5750 5750 5749 5749 5748 5747 5746 5745 5744 5743 5743 5742
5745 5744 5743 5742 5741 5740 5739 5739 5738 5738 5737 5737 5737 5737 5737 5737 5737 5738 5738 5739 5740 5741 5742 5743 5744 5744 5745 5745 5746 5746 5747 5747 5746 5746 5746 5745 5744 5743 5742 5741 5741 5740 5739
5740 5739 5738 5737 5736 5736 5735 5735 5734 5733 5732 5732 5732 5732 5732 5733 5733 5733 5734 5734 5735 5736 5738 5739 5739 5740 5741 5741 5742 5742 5743 5743 5743 5743 5743 5742 5741 5741 5740 5739 5738 5737 5736
5736 5736 5735 5734 5733 5732 5732 5731 5731 5730 5729 5729 5729 5729 5729 5729 5730 5730 5730 5731 5732 5733 5734 5734 5735 5736 5737 5738 5738 5739 5739 5739 5740 5740 5740 5740 5739 5738 5738 5737 5736 5735 5734
5733 5733 5732 5731 5730 5730 5729 5729 5728 5728 5727 5727 5726 5726 5727 5727 5727 5727 5727 5728 5729 5730 5730 5731 5732 5733 5734 5734 5735 5736 5736 5737 5737 5738 5738 5737 5737 5736 5736 5735 5734 5733 5732
5732 5731 5730 5729 5729 5728 5728 5728 5727 5726 5726 5725 5725 5725 5725 5725 5725 5725 5726 5726 5727 5728 5728 5729 5730 5730 5731 5731 5732 5733 5734 5735 5735 5736 5736 5735 5735 5735 5734 5733 5732 5731 5729
Wind_Speed
24 24 24 23 24 24 24 24 24 24 23 22 21 21 20 20 19 19 18 18 17 17 17 17 17 17 17 17 17 18 19 20 20 21 21 21 21 22 22 22 22 23 23
24 24 23 24 24 25 24 24 24 23 22 22 21 21 21 20 20 20 20 19 18 18 18 18 18 18 18 18 18 18 19 20 21 22 23 23 23 24 24 24 24 24 24
23 24 24 24 24 24 25 24 24 23 23 22 22 22 22 21 21 21 21 21 20 19 19 20 19 19 20 20 20 20 20 20 21 22 23 24 24 25 25 26 26 26 27
23 23 23 23 24 25 25 24 24 23 23 23 23 23 23 22 22 22 21 21 21 21 21 21 21 21 21 21 21 21 21 21 22 23 24 24 25 26 27 27 27 28 28
23 23 23 25 25 24 24 24 24 23 23 23 23 23 22 22 22 22 22 22 21 21 21 21 21 22 22 22 22 22 22 22 23 23 24 24 25 25 26 27 27 28 28
24 24 24 24 23 23 23 24 23 23 23 24 23 23 23 22 22 23 23 23 22 22 22 22 22 22 23 22 22 23 23 24 24 24 24 24 25 25 26 27 27 28 29
23 23 23 23 23 24 24 24 24 24 24 24 24 24 24 24 23 23 23 23 23 24 24 23 23 24 24 23 24 24 24 24 25 25 25 26 26 27 27 27 28 29 29
23 23 23 24 23 23 23 23 24 24 24 24 24 24 24 24 24 24 24 24 24 25 25 25 25 25 25 25 25 25 25 26 26 26 26 27 27 28 29 28 28 29 29
24 24 23 23 22 22 22 23 24 24 25 25 25 24 23 23 24 25 25 25 25 26 26 26 25 25 26 26 26 26 26 26 26 27 27 28 28 28 28 28 29 29 30
24 24 24 23 23 22 23 23 23 24 25 25 25 25 24 24 24 24 25 24 25 25 25 25 25 25 25 25 25 25 26 26 26 27 27 28 28 28 29 29 29 30 29
24 23 23 23 22 22 22 22 23 24 24 24 24 25 25 25 25 24 24 25 25 25 25 25 24 25 25 25 25 25 25 26 26 26 26 27 27 27 27 28 28 29 29
24 24 23 23 22 21 21 22 23 24 24 24 24 25 25 25 25 25 25 25 25 25 25 24 24 25 25 25 25 25 25 25 25 25 25 26 26 26 26 27 27 27 27
23 24 24 22 21 20 20 21 22 24 24 24 24 24 25 25 26 26 25 24 25 25 25 24 24 24 24 24 24 24 24 24 24 24 24 24 24 24 24 25 25 26 27
22 22 23 22 21 21 22 22 23 23 24 24 24 25 25 25 25 25 25 24 24 23 23 24 24 24 24 24 24 24 23 23 23 23 23 23 23 24 24 24 25 25 26
23 22 22 22 22 22 23 23 23 24 24 24 24 24 25 25 24 24 25 24 23 22 22 23 23 23 24 23 22 22 22 22 22 22 22 22 22 22 23 24 25 25 26
22 22 21 22 22 22 22 23 23 23 23 23 23 24 24 24 24 24 24 24 24 23 23 23 23 22 21 21 21 21 21 21 21 21 21 21 22 22 23 23 24 24 24
22 22 21 21 21 21 21 21 21 21 22 22 22 22 23 23 23 23 23 23 23 23 22 22 21 21 20 20 20 20 20 20 19 19 19 20 21 22 22 22 22 21 21
22 21 20 20 20 20 19 19 20 20 20 21 21 21 21 21 22 22 22 22 22 21 20 20 20 20 19 18 18 17 17 18 18 18 18 18 18 19 19 20 20 19 19
20 20 20 19 19 19 19 18 18 18 18 19 19 19 19 19 20 20 20 20 20 20 20 19 19 17 17 16 16 16 16 16 16 16 16 16 17 16 15 15 15 15 15
19 19 18 17 17 18 18 17 17 17 17 16 16 16 16 17 17 18 18 18 18 18 18 18 18 17 17 16 16 16 15 15 15 15 14 14 13 13 12 12 12 12 12
18 17 17 16 16 16 15 15 15 15 15 15 15 15 14 14 14 15 15 16 16 16 16 16 16 16 15 15 15 14 14 14 13 12 12 12 11 11 10 10 10 10 10
15 15 15 15 14 14 13 13 13 13 14 14 14 14 14 13 12 12 13 14 15 15 15 15 15 15 14 14 13 14 13 12 12 11 11 10 10 10 9 8 9 9 9
13 13 13 12 12 12 11 11 12 12 11 11 12 12 12 11 11 11 12 12 12 13 13 13 13 13 13 12 13 12 12 11 10 9 8 8 9 8 7 7 7 8 8
11 10 9 9 9 9 9 9 9 8 8 9 9 9 9 9 9 9 9 10 10 11 11 11 11 11 12 12 11 10 9 9 9 8 8 7 7 7 6 6 6 7 8
8 7 7 7 6 6 7 7 6 5 6 6 6 7 7 7 7 7 7 7 8 8 9 9 9 9 10 10 10 10 8 8 7 7 7 7 7 6 7 7 7 8 8
6 5 5 4 4 4 4 4 3 3 3 3 4 4 5 5 4 4 5 6 6 7 7 7 7 7 8 8 7 8 7 7 7 6 6 6 6 6 6 7 8 8 9
Wind_Direction
271 269 267 268 265 261 261 258 256 254 252 253 256 260 264 264 266 264 265 267 268 268 269 271 272 271 272 274 273 271 268 268 267 266 266 265 265 264 262 262 260 258 258
273 267 267 266 264 260 260 259 256 253 252 253 255 259 260 263 264 265 266 267 268 268 269 271 271 271 272 272 272 271 270 268 268 267 267 266 265 263 262 262 260 260 262
279 271 269 265 263 260 256 256 254 254 253 252 254 258 261 262 263 265 266 266 267 268 269 270 270 270 270 272 272 273 272 271 269 267 267 267 266 264 264 262 260 260 261
279 277 273 268 265 265 259 255 254 254 254 255 256 258 260 261 263 265 266 267 267 267 268 269 269 269 270 271 271 272 273 273 272 272 270 268 267 267 265 264 262 261 261
279 278 275 270 269 265 258 255 255 253 255 257 258 259 259 261 262 262 265 266 265 265 267 268 268 268 270 270 271 271 273 273 273 274 272 269 268 268 265 263 263 263 263
279 276 274 271 267 261 259 257 256 255 256 258 260 259 260 262 262 261 263 263 264 265 266 266 267 267 269 269 270 270 272 273 273 273 271 270 268 268 267 263 263 264 265
278 277 275 271 266 262 260 258 256 257 258 259 261 260 260 261 262 262 262 264 266 267 266 266 267 268 268 269 270 271 271 272 273 273 271 270 269 267 267 265 263 264 264
282 280 277 271 265 262 260 258 255 258 259 260 260 260 261 261 261 263 264 265 266 266 266 267 269 269 268 268 269 271 272 273 273 273 273 270 270 267 265 263 264 263 263
283 278 276 273 268 265 263 259 256 258 260 260 259 259 260 261 263 264 265 265 265 266 266 267 268 269 268 269 270 272 273 274 273 274 274 272 271 268 265 265 264 265 264
280 278 276 272 271 269 265 261 258 258 258 259 259 258 258 259 261 264 265 265 266 266 266 267 269 269 269 270 271 273 274 274 274 273 273 271 270 269 267 267 265 264 262
279 279 276 274 272 271 267 262 260 260 259 258 258 259 259 259 259 261 263 265 266 265 265 266 267 269 270 271 271 272 274 274 274 273 272 271 270 271 269 268 267 264 262
279 278 277 276 276 274 268 264 263 262 262 260 260 260 260 260 259 260 262 264 266 265 264 263 265 267 269 271 271 272 272 272 272 273 273 272 271 270 268 267 266 264 261
278 278 276 274 275 273 270 268 266 265 264 263 262 262 262 261 261 261 261 262 264 264 264 264 264 265 268 271 272 272 272 271 271 272 272 272 271 270 267 267 266 265 264
281 280 275 274 275 274 271 270 268 267 265 264 263 263 263 262 262 261 261 261 261 262 263 264 264 266 269 271 271 271 270 271 271 271 271 272 271 270 268 268 267 266 266
283 280 278 276 275 274 272 270 268 267 268 266 264 264 263 262 262 261 260 259 259 258 261 263 265 267 269 269 269 269 269 270 271 271 271 270 269 270 268 268 267 266 267
281 281 280 277 275 273 272 272 271 269 268 266 265 265 265 264 263 261 260 260 260 260 262 264 265 267 268 268 269 269 267 268 271 271 271 268 267 270 269 268 266 265 264
285 283 280 278 277 276 274 274 271 270 269 268 268 267 266 264 263 260 260 260 260 261 262 262 264 265 267 268 268 268 267 268 269 272 275 272 270 271 269 268 268 268 266
285 284 283 280 279 277 274 275 274 271 271 269 268 267 265 263 261 259 259 258 258 259 259 260 263 265 266 266 267 266 266 267 269 273 276 277 278 278 274 269 269 269 267
285 284 282 281 279 277 275 275 276 274 273 271 269 266 264 261 260 260 259 257 256 257 258 260 262 262 263 264 265 264 265 268 272 274 278 282 283 281 276 272 269 268 268
283 283 282 282 279 276 274 274 275 273 273 271 269 267 267 264 261 260 258 256 256 256 257 258 260 261 262 263 262 262 265 268 272 273 274 279 281 279 276 273 266 265 269
283 283 282 282 280 278 275 275 275 274 270 268 265 266 267 266 262 259 256 255 254 255 255 256 258 261 262 260 260 261 263 267 269 270 274 277 278 277 276 274 270 270 275
284 283 284 284 281 277 275 275 277 277 270 267 264 265 263 264 263 259 256 253 251 251 251 254 256 258 256 256 256 257 258 264 268 272 272 274 277 278 276 278 279 279 281
284 285 286 285 281 276 277 280 281 278 270 268 264 264 259 258 260 259 257 250 249 248 249 252 254 252 250 254 252 250 253 263 266 267 267 276 279 274 274 279 283 287 287
286 284 285 285 281 276 277 281 280 274 270 268 264 263 259 258 262 260 251 248 247 245 246 247 249 248 247 249 247 247 252 256 256 257 263 273 273 274 279 284 292 294 290
295 287 286 286 280 274 272 277 280 273 270 270 268 265 256 257 259 256 248 242 237 236 235 237 243 243 245 248 249 251 252 251 252 255 261 266 267 273 282 285 290 292 292
292 291 299 299 280 270 262 270 284 274 276 273 270 265 254 250 251 249 244 235 231 228 225 228 235 237 239 240 242 240 240 241 245 251 256 257 265 275 285 291 294 294 297